Tracking 35237 objects as of 6-Sep-2026
HD Live streaming from Space Station
objects crossing your sky now

STARLINK-31704

Track STARLINK-31704 now!
10-day predictions
STARLINK-31704 is classified as:


NORAD ID: 59586
Int'l Code: 2024-076Y
Launch date: April 23, 2024
Source: United States (US)
Launch site: AIR FORCE EASTERN TEST RANGE (AFETR)
Your satellite tracking list
Your tracking list is empty




NASA's NSSDC Master Catalog

Two Line Element Set (TLE):
1 59586U 24076Y   26248.36155698  .00058355  00000-0  46797-3 0  9999
2 59586  42.9829 356.2437 0028035 359.5176   0.5660 15.69637829134868
Source of the keplerian elements: AFSPC